Starlink 32342

operational
NORAD ID: 61217 Int'l Des: 2024-171 Owner: SPXS Country: US Constellation: starlink
LEOCIRCULAR

Starlink 32342について

説明を読み込み中...

リアルタイム位置

3D地球を読み込み中...

次回通過

高度履歴

Altitude vs Time

uPlot chart will show altitude changes over time

軌道要素

1 61217U 24171T 25340.51786013 .00014493 00000-0 50036-3 0 9995
2 61217 53.1578 35.2045 0001328 95.7256 264.3896 15.30209806 69013
Epoch: Dec 6, 2025 • Age: 35 hours

現在のステータス

高度 476.8 km
速度 7.63 km/s
衛星直下点 34.35°N, 108.27°E
打ち上げ日 Sep 20, 2024
運用期間 1.2 years
タイプ internet

技術仕様

分類 Payload
質量 730.00 kg
乾燥質量 700.00 kg
総質量 730.00 kg
長さ 0.30 m
直径 4.10 m
スパン 29.00 m
形状 Box + pan
製造者 SPXS
バスタイプ Starlink V2M
フェーズステータス In Orbit
所有者/国 SPXS/US

大規模コンステレーション

Loading constellations...